Rbgn^[z[y[W
メイン
   新天体発見情報
     Comet P/2019 D2 = P/2006 F4 (Spacewatch)
投稿するにはまず登録を

スレッド表示 | 新しいものから 前のトピック | 次のトピック | 下へ
投稿者 スレッド
佐藤裕久
投稿日時: 2019-4-20 6:51
モデレータ
登録日: 2005-6-12
居住地: 日本
投稿: 2505
オンライン
Comet P/2019 D2 = P/2006 F4 (Spacewatch)

G. V. Williams (小惑星センター)は、2月28.4日と3月29.2日UT(また、小惑星センターのNEOCP 
webpageに掲載された)、H. GroellerとB. M. AfricanoがMt Lemmonサーベイの1.5-m 反射望遠鏡で
得たCCD画像によって報告された二次的な位置測定から、P/2006 F4 (IAUC 8695を参照)の検出観測
であることを確認した。R. Weryk (ハワイ大学天文学研究所)は、4月4.3日、Haleakalaにある1.8-m 
Pan-STARRS1望遠鏡で得た4枚のw-バンドCCD画像から、東に約4"短い尾が伸びて見え、頭部は近傍の
恒星より大きいようで、FWHM (半値全幅)は約1".8対1".2であった。WerykkはまたP/2006 F4との
同一性を提案した。
MPC 5695のB. G. Marsdenの予報に対して、Delta(T)は、-1.29 daysであった。また2012年の回帰
は見逃された。修正したDelta(T)は、-0.61 dayであった。

検出位置は次のとおり、

     2019 UT             R.A. (2000) Decl.       Mag.   Observer
     Feb. 28.38006   11 33 44.63   - 2 54 37.9   20.1   Groeller
          28.38564   11 33 44.45   - 2 54 35.0   20.3     "
          28.39123   11 33 44.31   - 2 54 32.0   21.2     "
          28.39682   11 33 44.08   - 2 54 30.0   20.1     "
     Mar. 29.20579   11 17 08.67   + 1 47 24.5   19.1   Africano
          29.21142   11 17 08.47   + 1 47 27.9   19.2     "
          29.21703   11 17 08.31   + 1 47 31.5   19.1     "
          29.22265   11 17 08.12   + 1 47 34.6   19.1     "
     Apr.  3.29479   11 14 46.59   + 2 37 22.1   20.1   Bulger
           3.30601   11 14 46.28   + 2 37 28.5   20.1     "
           3.31721   11 14 45.97   + 2 37 35.0   20.3     "
           3.32845   11 14 45.65   + 2 37 41.4   20.2     "

連結軌道要素と位置推算表は次のとおり、

Orbital elements:
    P/2006 F4 (Spacewatch)
Epoch 2006 Apr. 15.0 TT = JDT 2453840.5
T 2006 May 3.61402 TT                                   MPCW
q   2.3396068            (2000.0)            P               Q
n   0.14866777     Peri.   31.38854     -0.81514725     +0.57905128
a   3.5290529      Node   184.09505     -0.56591345     -0.80173766
e   0.3370440      Incl.   12.38471     -0.12359989     -0.14804165
P   6.63
From 55 observations 2006 Mar. 26-2019 Apr. 3, mean residual 0".6.

    P/2006 F4 (Spacewatch)
Epoch 2012 Dec. 19.0 TT = JDT 2456280.5
T 2012 Dec. 13.47104 TT                                 MPCW
q   2.3418405            (2000.0)            P               Q
n   0.14859861     Peri.   31.05779     -0.81881303     +0.57385954
a   3.5301477      Node   184.06074     -0.56081563     -0.80528935
e   0.3366168      Incl.   12.37871     -0.12260122     -0.14897747
P   6.63
From 55 observations 2006 Mar. 26-2019 Apr. 3, mean residual 0".6.

    P/2006 F4 (Spacewatch)
Epoch 2019 July 16.0 TT = JDT 2458680.5
T 2019 Aug. 1.55687 TT                                  MPCW
q   2.3335626            (2000.0)            P               Q
n   0.14890180     Peri.   31.20264     -0.81767860     +0.57547774
a   3.5253542      Node   184.02850     -0.56244048     -0.80418735
e   0.3380629      Incl.   12.38609     -0.12272901     -0.14868783
P   6.62
From 55 observations 2006 Mar. 26-2019 Apr. 3, mean residual 0".6.

    P/2006 F4 (Spacewatch)
Epoch 2026 Feb. 9.0 TT = JDT 2461080.5
T 2026 Feb. 22.86883 TT                                 MPCW
q   2.2646202            (2000.0)            P               Q
n   0.15155538     Peri.   31.60803     -0.81872910     +0.57402883
a   3.4840829      Node   183.50916     -0.56140542     -0.80511603
e   0.3500097      Incl.   12.42974     -0.12044343     -0.14926178
P   6.50
From 55 observations 2006 Mar. 26-2019 Apr. 3, mean residual 0".6.

    P/2006 F4 (Spacewatch)
Epoch 2019 Apr. 27.0 TT = JDT 2458600.5
T 2019 Aug. 1.54870 TT                                  MPCW
q   2.3335769            (2000.0)            P               Q
n   0.14892371     Peri.   31.19913     -0.81770955     +0.57543372
a   3.5250084      Node   184.02894     -0.56239750     -0.80421858
e   0.3379939      Incl.   12.38638     -0.12271981     -0.14868930
P   6.62
From 55 observations 2006 Mar. 26-2019 Apr. 3, mean residual 0".6.

Ephemeris:
    P/2006 F4 (Spacewatch)
Date    TT    R. A. (2000) Decl.     Delta      r     Elong.  Phase   m1
2019 03 04    11 31 48.1 -02 23 36   1.5485  2.5253   167.4     4.9  20.0
...
2019 03 19    11 22 51.2 +00 02 48   1.5009  2.4913   172.7     2.9  19.8
...
2019 03 27    11 18 17.2 +01 25 09   1.5004  2.4743   163.8     6.4  19.8
...
2019 04 02    11 15 20.2 +02 24 56   1.5110  2.4620   157.0     9.1  19.8
2019 04 03    11 14 54.0 +02 34 34   1.5136  2.4600   155.8     9.6  19.8
2019 04 04    11 14 28.8 +02 44 06   1.5165  2.4580   154.7    10.0  19.8
...
2019 04 10    11 12 22.4 +03 38 24   1.5386  2.4464   148.0    12.5  19.8
...
2019 04 18    11 10 48.5 +04 41 24   1.5798  2.4317   139.4    15.6  19.9
...
2019 05 03    11 12 08.0 +06 04 34   1.6868  2.4066   124.6    20.2  19.9

(CBET 4616、MPEC 2019-G21)

スレッド表示 | 新しいものから 前のトピック | 次のトピック | トップ

投稿するにはまず登録を
 
© 1999 Tsutomu Seki.